Tracking 28052 objects as of 22-Sep-2023
HD Live streaming from Space Station
objects crossing your sky now

OBJECT Q

Track OBJECT Q now!
10-day predictions


NORAD ID: 53458
Int'l Code: 2022-098Q
Perigee: 493.2 km
Apogee: 503.8 km
Inclination: 97.5 °
Period: 94.4 minutes
Semi major axis: 6869 km
RCS: Unknown
Launch date: August 10, 2022
Source: People's Republic of China (PRC)
Launch site: Taiyaun Space Center, China (TSC)

Note: This is SATELLITE DEBRIS
Your satellite tracking list
Your tracking list is empty




NASA's NSSDC Master Catalog

Two Line Element Set (TLE):
1 53458U 22098Q   23265.10016166  .00030928  00000-0  12441-2 0  9991
2 53458  97.5268   3.3503 0007730 312.2088  47.8493 15.24819071 61807
Source of the keplerian elements: AFSPC